GW3945 Weather Reports


Display with metric or nautical units.
time (UTC)temp
F
wind
direction
speed
MPH
gust
MPH
rain 1hr
in
rain 24hr
in
rain mn
in
humidity
%
barometer
mb
20260509222505 79 186 0.0 0.0 0.00 0.00 0.00 43 1009.3
20260509222001 78 180 0.0 0.0 0.00 0.00 0.00 42 1009.2
20260509221457 78 177 0.0 0.0 0.00 0.00 0.00 41 1009.1
20260509220953 79 214 0.0 0.0 0.00 0.00 0.00 40 1009.1
20260509220449 78 202 0.0 0.0 0.00 0.00 0.00 43 1009.2
20260509215945 78 183 0.0 0.0 0.00 0.00 0.00 41 1009.0
20260509215441 78 201 0.0 0.0 0.00 0.00 0.00 41 1009.0
20260509214939 78 174 0.0 0.0 0.00 0.00 0.00 43 1008.9
20260509214436 79 335 0.0 0.0 0.00 0.00 0.00 43 1008.6
20260509213932 80 185 0.0 0.0 0.00 0.00 0.00 43 1008.9
20260509213428 80 203 0.0 0.0 0.00 0.00 0.00 41 1008.8
20260509212926 78 193 0.0 0.0 0.00 0.00 0.00 44 1008.8
20260509212423 80 184 0.0 0.0 0.00 0.00 0.00 42 1008.9
20260509211919 79 221 0.0 0.0 0.00 0.00 0.00 43 1008.8
20260509211415 79 179 0.0 0.0 0.00 0.00 0.00 44 1008.5
20260509210911 79 192 0.0 0.0 0.00 0.00 0.00 47 1008.4
20260509210409 77 218 0.0 0.0 0.00 0.00 0.00 46 1008.6
20260509205904 77 178 0.0 0.0 0.00 0.00 0.00 49 1008.6
20260509205403 77 198 0.0 0.0 0.00 0.00 0.00 46 1008.5
20260509204900 77 181 0.0 0.0 0.00 0.00 0.00 46 1008.8
20260509204356 76 178 0.0 0.0 0.00 0.00 0.00 49 1008.4
20260509203853 76 194 0.0 0.0 0.00 0.00 0.00 48 1008.8
20260509203349 76 183 0.0 0.0 0.00 0.00 0.00 49 1008.8
20260509202847 76 198 0.0 1.0 0.00 0.00 0.00 46 1008.8
20260509202342 76 209 0.0 0.0 0.00 0.00 0.00 53 1008.9
20260509201837 75 169 0.0 0.0 0.00 0.00 0.00 54 1008.8
20260509201333 75 177 0.0 0.0 0.00 0.00 0.00 51 1009.1
20260509200830 76 165 0.0 0.0 0.00 0.00 0.00 51 1008.9
20260509200326 76 204 0.0 1.0 0.00 0.00 0.00 49 1009.1
20260509195823 75 181 0.0 0.0 0.00 0.00 0.00 57 1009.1
20260509195322 75 175 0.0 0.0 0.00 0.00 0.00 54 1009.3
20260509194822 75 270 3.0 3.0 0.00 0.00 0.00 51 1009.4
20260509194319 75 172 0.0 0.0 0.00 0.00 0.00 52 1009.3
20260509193815 75 203 0.0 0.0 0.00 0.00 0.00 55 1009.4
20260509193315 74 186 0.0 1.0 0.00 0.00 0.00 53 1009.6
20260509192812 74 203 0.0 0.0 0.00 0.00 0.00 54 1009.5
20260509192308 74 180 0.0 0.0 0.00 0.00 0.00 58 1009.3
20260509191803 74 252 0.0 0.0 0.00 0.00 0.00 56 1009.4
20260509191259 73 243 0.0 0.0 0.00 0.00 0.00 59 1009.5
20260509190755 72 180 0.0 0.0 0.00 0.00 0.00 59 1009.5
20260509190253 73 170 0.0 0.0 0.00 0.00 0.00 58 1009.4
20260509185750 73 184 0.0 0.0 0.00 0.00 0.00 58 1009.4
20260509185246 73 168 0.0 0.0 0.00 0.00 0.00 57 1009.5
20260509184743 74 209 1.0 2.0 0.00 0.00 0.00 57 1009.4
20260509184241 73 182 0.0 0.0 0.00 0.00 0.00 58 1009.3
20260509183737 72 187 0.0 0.0 0.00 0.00 0.00 61 1009.2
20260509183232 72 163 0.0 0.0 0.00 0.00 0.00 59 1009.2
20260509182728 71 182 0.0 0.0 0.00 0.00 0.00 62 1009.3
20260509182226 72 251 1.0 3.0 0.00 0.00 0.00 61 1009.1
20260509181723 72 274 0.0 0.0 0.00 0.00 0.00 61 1009.2
20260509181220 72 260 0.0 0.0 0.00 0.00 0.00 59 1009.0
20260509180717 72 175 0.0 0.0 0.00 0.00 0.00 59 1009.1
20260509180213 72 282 0.0 0.0 0.00 0.00 0.00 60 1009.3
20260509175710 71 198 0.0 0.0 0.00 0.00 0.00 61 1009.0
20260509175207 72 204 0.0 0.0 0.00 0.00 0.00 63 1009.0
20260509174702 71 259 2.0 2.0 0.00 0.00 0.00 62 1009.1
20260509174157 71 162 0.0 0.0 0.00 0.00 0.00 66 1009.2
20260509173654 70 196 0.0 0.0 0.00 0.00 0.00 62 1008.9
20260509173149 70 260 3.0 3.0 0.00 0.00 0.00 65 1009.1
20260509172646 70 179 0.0 0.0 0.00 0.00 0.00 65 1009.4
20260509172142 70 286 2.0 3.0 0.00 0.00 0.00 63 1009.6
20260509171638 70 258 1.0 1.0 0.00 0.00 0.00 62 1009.2
20260509171134 70 185 0.0 0.0 0.00 0.00 0.00 65 1009.5
20260509170631 69 172 0.0 0.0 0.00 0.00 0.00 68 1009.5
20260509170127 69 207 0.0 0.0 0.00 0.00 0.00 69 1009.5
20260509165625 69 187 0.0 0.0 0.00 0.00 0.00 68 1009.7
20260509165121 69 161 0.0 0.0 0.00 0.00 0.00 68 1009.7
20260509164617 68 147 0.0 0.0 0.00 0.00 0.00 68 1009.4
20260509164113 68 261 0.0 1.0 0.00 0.00 0.00 67 1009.6
20260509163611 69 188 0.0 0.0 0.00 0.00 0.00 69 1009.5
20260509163107 68 205 1.0 1.0 0.00 0.00 0.00 69 1009.5
20260509162604 68 197 0.0 0.0 0.00 0.00 0.00 72 1009.4
20260509162100 68 217 0.0 0.0 0.00 0.00 0.00 71 1009.6
20260509161556 68 84 0.0 1.0 0.00 0.00 0.00 70 1009.6
20260509161051 68 179 0.0 0.0 0.00 0.00 0.00 71 1009.6
20260509160547 68 183 0.0 0.0 0.00 0.00 0.00 73 1009.5
20260509160042 68 196 0.0 0.0 0.00 0.00 0.00 74 1009.6
20260509155539 68 219 0.0 0.0 0.00 0.00 0.00 74 1009.6
20260509155035 68 176 0.0 0.0 0.00 0.00 0.00 74 1009.3
20260509154531 67 140 0.0 0.0 0.00 0.00 0.00 74 1009.5
20260509154029 67 179 0.0 0.0 0.00 0.00 0.00 77 1009.5
20260509153526 66 206 0.0 1.0 0.00 0.00 0.00 76 1009.4
20260509153023 66 284 2.0 3.0 0.00 0.00 0.00 77 1009.3
20260509152518 66 187 0.0 0.0 0.00 0.00 0.00 78 1009.3
20260509152015 65 205 0.0 0.0 0.00 0.00 0.00 78 1009.3
20260509151512 65 256 0.0 0.0 0.00 0.00 0.00 80 1009.2
20260509151010 65 218 0.0 0.0 0.00 0.00 0.00 79 1009.3
20260509150507 64 212 1.0 1.0 0.00 0.00 0.00 79 1009.2
20260509150006 64 175 0.0 0.0 0.00 0.00 0.00 81 1009.3
20260509145501 63 148 0.0 0.0 0.00 0.00 0.00 82 1009.3
20260509144955 63 225 0.0 0.0 0.00 0.00 0.00 82 1009.2
20260509144453 63 175 0.0 1.0 0.00 0.00 0.00 83 1009.0
20260509143950 62 235 0.0 1.0 0.00 0.00 0.00 83 1009.1
20260509143447 63 225 1.0 2.0 0.00 0.00 0.00 83 1009.1
20260509142944 62 214 0.0 1.0 0.00 0.00 0.00 84 1009.1
20260509142440 62 180 0.0 0.0 0.00 0.00 0.00 84 1009.3
20260509141935 62 248 0.0 0.0 0.00 0.00 0.00 84 1009.2
20260509141432 62 204 0.0 0.0 0.00 0.00 0.00 85 1008.9
20260509140929 61 183 0.0 0.0 0.00 0.00 0.00 86 1008.9
20260509140425 61 180 0.0 0.0 0.00 0.00 0.00 86 1009.2
20260509135924 61 184 0.0 0.0 0.00 0.00 0.00 87 1009.1
20260509135421 61 222 0.0 0.0 0.00 0.00 0.00 87 1009.1
20260509134918 60 199 0.0 0.0 0.00 0.00 0.00 87 1008.9
20260509134416 60 229 4.0 7.0 0.00 0.00 0.00 87 1008.8
20260509133913 60 176 1.0 2.0 0.00 0.00 0.00 87 1008.9
20260509133409 60 169 0.0 0.0 0.00 0.00 0.00 88 1008.6
20260509132908 60 168 0.0 0.0 0.00 0.00 0.00 88 1008.9
20260509132406 59 179 0.0 0.0 0.00 0.00 0.00 88 1008.5
20260509131903 59 170 0.0 0.0 0.00 0.00 0.00 88 1008.8
20260509131359 59 172 0.0 0.0 0.00 0.00 0.00 88 1008.5
20260509130856 58 165 0.0 0.0 0.00 0.00 0.00 89 1008.8
20260509130351 58 181 0.0 0.0 0.00 0.00 0.00 89 1008.6
20260509125849 57 223 0.0 0.0 0.00 0.00 0.00 90 1008.5
20260509125345 57 183 0.0 0.0 0.00 0.00 0.00 90 1009.0
20260509124841 57 188 0.0 0.0 0.00 0.00 0.00 91 1009.1
20260509124338 56 168 0.0 0.0 0.00 0.00 0.00 91 1008.5
20260509123836 56 180 0.0 0.0 0.00 0.00 0.00 92 1008.9
20260509123333 55 172 0.0 0.0 0.00 0.00 0.00 92 1009.1
20260509122829 55 173 0.0 0.0 0.00 0.00 0.00 92 1008.6
20260509122326 55 172 0.0 0.0 0.00 0.00 0.00 92 1009.0
20260509121823 55 173 0.0 0.0 0.00 0.00 0.00 92 1008.5
20260509121320 55 169 0.0 0.0 0.00 0.00 0.00 92 1008.5
20260509120818 55 175 0.0 0.0 0.00 0.00 0.00 92 1008.3
20260509120316 54 177 0.0 0.0 0.00 0.00 0.00 92 1008.3
20260509115814 54 177 0.0 0.0 0.00 0.00 0.00 92 1007.9
20260509115311 54 177 0.0 0.0 0.00 0.00 0.00 92 1008.0
20260509114809 54 177 0.0 0.0 0.00 0.00 0.00 92 1007.9
20260509114307 54 176 0.0 0.0 0.00 0.00 0.00 92 1007.8
20260509113806 54 176 0.0 0.0 0.00 0.00 0.00 92 1007.6
20260509113302 54 176 0.0 0.0 0.00 0.00 0.00 92 1007.8
20260509112759 54 176 0.0 0.0 0.00 0.00 0.00 92 1007.7
20260509112256 54 177 0.0 0.0 0.00 0.00 0.00 92 1007.7
20260509111753 54 177 0.0 0.0 0.00 0.00 0.00 91 1007.7
20260509111250 54 171 0.0 0.0 0.00 0.00 0.00 91 1007.7
20260509110747 54 172 0.0 0.0 0.00 0.00 0.00 91 1007.9
20260509110243 54 171 0.0 0.0 0.00 0.00 0.00 90 1007.7
20260509105742 55 172 0.0 0.0 0.00 0.00 0.00 90 1007.5
20260509105239 55 178 0.0 0.0 0.00 0.00 0.00 90 1007.7
20260509104736 54 176 0.0 0.0 0.00 0.00 0.00 90 1007.8
20260509104233 54 179 0.0 0.0 0.00 0.00 0.00 90 1007.5
20260509103731 54 186 0.0 0.0 0.00 0.00 0.00 90 1007.6
20260509103228 54 173 0.0 0.0 0.00 0.00 0.00 90 1007.6
20260509102726 54 174 0.0 0.0 0.00 0.00 0.00 89 1007.3
20260509102223 55 173 0.0 0.0 0.00 0.00 0.00 89 1007.4
20260509101719 55 173 0.0 0.0 0.00 0.00 0.00 88 1007.5
20260509101215 55 175 0.0 0.0 0.00 0.00 0.00 88 1007.8
20260509100713 54 172 0.0 0.0 0.00 0.00 0.00 89 1007.7
20260509100210 55 173 0.0 0.0 0.00 0.00 0.00 89 1007.4
20260509095707 55 174 0.0 0.0 0.00 0.00 0.00 88 1007.7
20260509095204 55 174 0.0 0.0 0.00 0.00 0.00 87 1007.9
20260509094701 55 175 0.0 0.0 0.00 0.00 0.00 87 1008.1
20260509094158 55 173 0.0 0.0 0.00 0.00 0.00 87 1007.9
20260509093656 56 173 0.0 0.0 0.00 0.00 0.00 86 1007.9
20260509093153 56 172 0.0 0.0 0.00 0.00 0.00 86 1008.3
20260509092651 56 182 0.0 0.0 0.00 0.00 0.00 86 1008.1
20260509092149 56 174 0.0 0.0 0.00 0.00 0.00 86 1008.3
20260509091647 56 172 0.0 0.0 0.00 0.00 0.00 85 1008.3
20260509091143 56 173 0.0 0.0 0.00 0.00 0.00 85 1008.0
20260509090641 56 172 0.0 0.0 0.00 0.00 0.00 85 1008.3
20260509090138 56 176 0.0 0.0 0.00 0.00 0.00 85 1008.1
20260509085635 56 176 0.0 0.0 0.00 0.00 0.00 85 1008.0
20260509085131 56 177 0.0 0.0 0.00 0.00 0.00 85 1008.3
20260509084629 56 178 0.0 0.0 0.00 0.00 0.00 85 1008.1
20260509084126 56 177 0.0 0.0 0.00 0.00 0.00 84 1007.8
20260509083623 56 177 0.0 0.0 0.00 0.00 0.00 84 1008.3
20260509083119 56 176 0.0 0.0 0.00 0.00 0.00 84 1008.5
20260509082617 56 181 0.0 0.0 0.00 0.00 0.00 84 1008.3
20260509082113 56 187 0.0 0.0 0.00 0.00 0.00 84 1008.5
20260509081610 56 178 0.0 0.0 0.00 0.00 0.00 84 1008.2
20260509081107 56 178 0.0 0.0 0.00 0.00 0.00 84 1008.3
20260509080606 56 199 0.0 0.0 0.00 0.00 0.00 84 1008.4
20260509080103 56 175 0.0 0.0 0.00 0.00 0.00 84 1008.2
20260509075601 57 175 0.0 0.0 0.00 0.00 0.00 84 1008.0
20260509075059 56 180 0.0 0.0 0.00 0.00 0.00 82 1007.9
20260509074555 56 179 0.0 0.0 0.00 0.00 0.00 82 1008.1
20260509074051 56 179 0.0 0.0 0.00 0.00 0.00 82 1008.3
20260509073548 57 179 0.0 0.0 0.00 0.00 0.00 82 1008.2
20260509073045 57 179 0.0 0.0 0.00 0.00 0.00 81 1008.5
20260509072541 57 184 0.0 0.0 0.00 0.00 0.00 81 1008.1
20260509072038 57 179 0.0 0.0 0.00 0.00 0.00 81 1008.1
20260509071535 57 176 0.0 0.0 0.00 0.00 0.00 80 1008.1
20260509071033 57 176 0.0 0.0 0.00 0.00 0.00 80 1008.1
20260509070530 57 176 0.0 0.0 0.00 0.00 0.00 80 1008.0
20260509070026 57 175 0.0 0.0 0.00 0.00 0.00 79 1008.0
20260509065521 57 174 0.0 0.0 0.00 0.00 0.00 79 1008.4
20260509065018 57 174 0.0 0.0 0.00 0.00 0.00 78 1008.5
20260509064515 57 174 0.0 0.0 0.00 0.00 0.00 78 1008.6
20260509064013 58 173 0.0 0.0 0.00 0.00 0.00 77 1008.3
20260509063508 58 175 0.0 0.0 0.00 0.00 0.00 77 1008.5
20260509063006 58 169 0.0 0.0 0.00 0.00 0.00 77 1008.4
20260509062503 57 173 0.0 0.0 0.00 0.00 0.00 77 1008.9
20260509062001 58 172 0.0 0.0 0.00 0.00 0.00 76 1008.6
20260509061457 58 162 0.0 0.0 0.00 0.00 0.00 75 1008.9
20260509060954 58 176 0.0 0.0 0.00 0.00 0.00 76 1008.9
20260509060452 58 161 2.0 2.0 0.00 0.00 0.00 75 1008.8
20260509055947 58 172 0.0 0.0 0.00 0.00 0.00 74 1009.1
20260509055442 58 172 0.0 0.0 0.00 0.00 0.00 74 1009.1
20260509054939 58 176 0.0 0.0 0.00 0.00 0.00 74 1009.0
20260509054436 58 174 0.0 0.0 0.00 0.00 0.00 74 1009.0
20260509053934 58 177 0.0 0.0 0.00 0.00 0.00 73 1009.1
20260509053432 58 177 0.0 0.0 0.00 0.00 0.00 73 1009.3
20260509052929 58 177 0.0 0.0 0.00 0.00 0.00 72 1009.5
20260509052426 58 177 0.0 0.0 0.00 0.00 0.00 71 1009.3
20260509051925 59 177 0.0 0.0 0.00 0.00 0.00 70 1009.2
20260509051422 59 176 0.0 0.0 0.00 0.00 0.00 70 1009.3
20260509050919 59 172 0.0 0.0 0.00 0.00 0.00 70 1009.1
20260509050415 58 175 0.0 0.0 0.00 0.00 0.00 70 1009.1
20260509045912 59 170 0.0 0.0 0.00 0.00 0.00 69 1009.2
20260509045409 59 172 0.0 0.0 0.00 0.00 0.00 67 1009.2
20260509044906 59 180 0.0 0.0 0.00 0.00 0.00 67 1009.2
20260509044404 59 178 0.0 0.0 0.00 0.00 0.00 67 1009.2
20260509043901 59 178 0.0 0.0 0.00 0.00 0.00 66 1009.0
20260509043356 60 178 0.0 0.0 0.00 0.00 0.00 65 1009.1
20260509042852 60 178 0.0 0.0 0.00 0.00 0.00 65 1009.1
20260509042349 60 178 0.0 0.0 0.00 0.00 0.00 64 1009.1
20260509041846 60 178 0.0 0.0 0.00 0.00 0.00 63 1009.1
20260509041343 61 178 0.0 0.0 0.00 0.00 0.00 63 1009.0
20260509040841 61 178 0.0 0.0 0.00 0.00 0.00 62 1009.3
20260509040339 61 177 0.0 0.0 0.00 0.00 0.00 62 1009.1
20260509035835 61 175 0.0 0.0 0.00 0.00 0.00 62 1009.1
20260509035333 61 176 0.0 0.0 0.00 0.00 0.00 61 1009.0
20260509034828 61 180 0.0 0.0 0.00 0.00 0.00 61 1009.4
20260509034326 61 176 0.0 0.0 0.00 0.00 0.00 60 1009.2
20260509033823 62 176 0.0 0.0 0.00 0.00 0.00 60 1009.1
20260509033320 62 180 0.0 0.0 0.00 0.00 0.00 60 1009.4
20260509032817 62 171 0.0 0.0 0.00 0.00 0.00 59 1009.3
20260509032314 62 173 0.0 0.0 0.00 0.00 0.00 58 1009.5
20260509031812 62 174 0.0 0.0 0.00 0.00 0.00 58 1009.5
20260509031309 62 170 0.0 0.0 0.00 0.00 0.00 58 1009.3
20260509030807 62 170 0.0 0.0 0.00 0.00 0.00 57 1009.2
20260509030305 62 173 0.0 0.0 0.00 0.00 0.00 58 1009.3
20260509025801 62 167 0.0 0.0 0.00 0.00 0.00 57 1009.2
20260509025256 62 169 0.0 0.0 0.00 0.00 0.00 57 1009.4
20260509024752 63 177 0.0 0.0 0.00 0.00 0.00 57 1009.1
20260509024248 62 170 0.0 0.0 0.00 0.00 0.00 57 1009.2
20260509023746 62 163 0.0 0.0 0.00 0.00 0.00 56 1009.4
20260509023243 62 171 0.0 0.0 0.00 0.00 0.00 56 1009.1
20260509022738 63 169 0.0 0.0 0.00 0.00 0.00 55 1009.4
20260509022237 63 169 0.0 0.0 0.00 0.00 0.00 55 1009.0
20260509021733 62 173 0.0 0.0 0.00 0.00 0.00 54 1009.2
20260509021231 62 166 0.0 0.0 0.00 0.00 0.00 55 1009.3
20260509020729 61 169 0.0 0.0 0.00 0.00 0.00 57 1009.3
20260509020226 62 168 0.0 0.0 0.00 0.00 0.00 65 1009.3
20260509015724 63 168 0.0 0.0 0.00 0.00 0.00 56 1009.1
20260509015222 63 168 0.0 0.0 0.00 0.00 0.00 56 1009.1
20260509014718 64 168 0.0 0.0 0.00 0.00 0.00 50 1009.3
20260509014215 63 171 0.0 0.0 0.00 0.00 0.00 51 1009.1
20260509013711 63 174 0.0 0.0 0.00 0.00 0.00 53 1009.2
20260509013207 62 175 0.0 0.0 0.00 0.00 0.00 55 1009.1
20260509012704 62 176 0.0 0.0 0.00 0.00 0.00 58 1009.1
20260509012200 63 179 0.0 0.0 0.00 0.00 0.00 53 1009.0
20260509011658 63 180 0.0 0.0 0.00 0.00 0.00 52 1009.1
20260509011155 64 180 0.0 0.0 0.00 0.00 0.00 60 1009.1
20260509010653 64 180 0.0 0.0 0.00 0.00 0.00 52 1009.2
20260509010149 64 180 0.0 0.0 0.00 0.00 0.00 58 1009.0
20260509005647 65 180 0.0 0.0 0.00 0.00 0.00 55 1009.1
20260509005143 66 180 0.0 0.0 0.00 0.00 0.00 47 1009.1
20260509004639 66 180 0.0 0.0 0.00 0.00 0.00 46 1009.2
20260509004136 66 180 0.0 0.0 0.00 0.00 0.00 48 1009.0
20260509003635 66 180 0.0 0.0 0.00 0.00 0.00 47 1009.3
20260509003132 66 180 0.0 0.0 0.00 0.00 0.00 46 1009.3
20260509002629 67 181 0.0 0.0 0.00 0.00 0.00 46 1009.4
20260509002126 67 182 0.0 0.0 0.00 0.00 0.00 47 1009.4
20260509001624 67 186 0.0 0.0 0.00 0.00 0.00 49 1009.4
20260509001119 68 177 0.0 0.0 0.00 0.00 0.00 43 1009.4
20260509000618 68 177 0.0 0.0 0.00 0.00 0.00 43 1009.4
20260509000114 68 176 0.0 0.0 0.00 0.00 0.00 42 1009.5
20260508235612 69 176 0.0 0.0 0.00 0.00 0.00 42 1009.4
20260508235108 69 176 0.0 0.0 0.00 0.00 0.00 41 1009.3
20260508234605 69 178 0.0 0.0 0.00 0.00 0.00 41 1009.5
20260508234101 69 171 0.0 0.0 0.00 0.00 0.00 41 1009.5
20260508233601 69 171 0.0 0.0 0.00 0.00 0.00 40 1009.5
20260508233058 69 164 0.0 0.0 0.00 0.00 0.00 40 1009.5
20260508232555 69 165 0.0 0.0 0.00 0.00 0.00 40 1009.6
20260508232052 70 165 0.0 0.0 0.00 0.00 0.00 39 1009.6
20260508231550 70 165 0.0 0.0 0.00 0.00 0.00 39 1009.6
20260508231046 70 172 0.0 0.0 0.00 0.00 0.00 38 1009.4
20260508230543 70 172 0.0 0.0 0.00 0.00 0.00 39 1009.6
20260508230039 70 170 0.0 0.0 0.00 0.00 0.00 39 1009.8
20260508225537 70 157 0.0 0.0 0.00 0.00 0.00 38 1009.7
20260508225033 70 160 0.0 0.0 0.00 0.00 0.00 38 1009.9
20260508224532 71 193 0.0 0.0 0.00 0.00 0.00 39 1009.8
20260508224029 71 173 0.0 0.0 0.00 0.00 0.00 37 1009.8
20260508223527 70 167 0.0 0.0 0.00 0.00 0.00 37 1009.8
20260508223023 70 167 0.0 0.0 0.00 0.00 0.00 37 1009.8